contact:dominique.lefevre@mio.osupytheas.fr, maurice.libes@osupytheas.fr, didier.mallarino@osupytheas.fr
Project:EMSO http://www.emso-fr.org/EMSO-France
Depth: 2436.0 m
Title:EMSO Ligure Ouest : Data MII capteur MICROCAT
DateTime_Computer,Latitude,Longitude,Temperature,Conductivity,Pressure,DateTime_Instrument
DateTime_Computer,Latitude,Longitude,degC,S m-1,dbar,DateTime_Instrument
2022-08-20T00:00:05Z,42.805,6.029,13.3009,4.60055,2470.591,2022-8-20T02:01:54Z
2022-08-20T00:03:08Z,42.805,6.029,13.3009,4.60059,2470.577,2022-8-20T02:04:57Z
2022-08-20T00:06:11Z,42.805,6.029,13.3011,4.60053,2470.577,2022-8-20T02:08:01Z
2022-08-20T00:09:14Z,42.805,6.029,13.3011,4.60054,2470.577,2022-8-20T02:11:04Z
2022-08-20T00:12:17Z,42.805,6.029,13.3012,4.60057,2470.577,2022-8-20T02:14:07Z
2022-08-20T00:15:20Z,42.805,6.029,13.3011,4.60059,2470.591,2022-8-20T02:17:10Z
2022-08-20T00:18:23Z,42.805,6.029,13.3013,4.60064,2470.577,2022-8-20T02:20:13Z
2022-08-20T00:21:27Z,42.805,6.029,13.3012,4.60064,2470.553,2022-8-20T02:23:16Z
2022-08-20T00:24:30Z,42.805,6.029,13.3014,4.60066,2470.577,2022-8-20T02:26:19Z
2022-08-20T00:27:33Z,42.805,6.029,13.3008,4.60068,2470.553,2022-8-20T02:29:22Z
2022-08-20T00:30:36Z,42.805,6.029,13.3010,4.60057,2470.591,2022-8-20T02:32:26Z
2022-08-20T00:33:39Z,42.805,6.029,13.3007,4.60060,2470.577,2022-8-20T02:35:29Z
2022-08-20T00:36:42Z,42.805,6.029,13.3008,4.60062,2470.6,2022-8-20T02:38:32Z
2022-08-20T00:39:45Z,42.805,6.029,13.3009,4.60065,2470.553,2022-8-20T02:41:35Z
2022-08-20T00:42:48Z,42.805,6.029,13.3012,4.60067,2470.563,2022-8-20T02:44:38Z
2022-08-20T00:45:51Z,42.805,6.029,13.3013,4.60067,2470.567,2022-8-20T02:47:41Z
2022-08-20T00:48:55Z,42.805,6.029,13.3012,4.60068,2470.553,2022-8-20T02:50:44Z
2022-08-20T00:51:58Z,42.805,6.029,13.3013,4.60066,2470.553,2022-8-20T02:53:47Z
2022-08-20T00:55:01Z,42.805,6.029,13.3011,4.60062,2470.6,2022-8-20T02:56:51Z
2022-08-20T00:58:04Z,42.805,6.029,13.3011,4.60064,2470.591,2022-8-20T02:59:54Z
2022-08-20T01:01:07Z,42.805,6.029,13.3011,4.60069,2470.553,2022-8-20T03:02:57Z
2022-08-20T01:04:10Z,42.805,6.029,13.3013,4.60064,2470.567,2022-8-20T03:06:00Z
2022-08-20T01:07:13Z,42.805,6.029,13.3011,4.60060,2470.577,2022-8-20T03:09:03Z
2022-08-20T01:10:16Z,42.805,6.029,13.3011,4.60057,2470.553,2022-8-20T03:12:06Z
2022-08-20T01:13:20Z,42.805,6.029,13.3011,4.60058,2470.553,2022-8-20T03:15:09Z
2022-08-20T01:16:23Z,42.805,6.029,13.3011,4.60061,2470.577,2022-8-20T03:18:12Z
2022-08-20T01:19:26Z,42.805,6.029,13.3009,4.60061,2470.553,2022-8-20T03:21:16Z
2022-08-20T01:22:29Z,42.805,6.029,13.3011,4.60059,2470.614,2022-8-20T03:24:19Z
2022-08-20T01:25:32Z,42.805,6.029,13.3009,4.60062,2470.577,2022-8-20T03:27:22Z
2022-08-20T01:28:35Z,42.805,6.029,13.3010,4.60062,2470.577,2022-8-20T03:30:25Z
2022-08-20T01:31:38Z,42.805,6.029,13.3009,4.60067,2470.567,2022-8-20T03:33:28Z
2022-08-20T01:34:41Z,42.805,6.029,13.3008,4.60069,2470.624,2022-8-20T03:36:31Z
2022-08-20T01:37:45Z,42.805,6.029,13.3011,4.60073,2470.567,2022-8-20T03:39:34Z
2022-08-20T01:40:48Z,42.805,6.029,13.3009,4.60070,2470.553,2022-8-20T03:42:37Z
2022-08-20T01:43:51Z,42.805,6.029,13.3009,4.60073,2470.553,2022-8-20T03:45:41Z
2022-08-20T01:46:54Z,42.805,6.029,13.3011,4.60071,2470.53,2022-8-20T03:48:44Z
2022-08-20T01:49:57Z,42.805,6.029,13.3012,4.60073,2470.553,2022-8-20T03:51:47Z
2022-08-20T01:53:00Z,42.805,6.029,13.3009,4.60066,2470.553,2022-8-20T03:54:50Z
2022-08-20T01:56:03Z,42.805,6.029,13.3008,4.60072,2470.53,2022-8-20T03:57:53Z
2022-08-20T01:59:06Z,42.805,6.029,13.3011,4.60055,2470.553,2022-8-20T04:00:56Z
2022-08-20T02:02:10Z,42.805,6.029,13.3011,4.60059,2470.553,2022-8-20T04:03:59Z
2022-08-20T02:05:13Z,42.805,6.029,13.3015,4.60057,2470.591,2022-8-20T04:07:02Z
2022-08-20T02:08:16Z,42.805,6.029,13.3010,4.60063,2470.567,2022-8-20T04:10:05Z
2022-08-20T02:11:19Z,42.805,6.029,13.3012,4.60070,2470.553,2022-8-20T04:13:09Z
2022-08-20T02:14:22Z,42.805,6.029,13.3019,4.60057,2470.507,2022-8-20T04:16:12Z
2022-08-20T02:17:25Z,42.805,6.029,13.3015,4.60074,2470.553,2022-8-20T04:19:15Z
2022-08-20T02:20:28Z,42.805,6.029,13.3016,4.60061,2470.567,2022-8-20T04:22:18Z
2022-08-20T02:23:31Z,42.805,6.029,13.3021,4.60067,2470.553,2022-8-20T04:25:21Z
2022-08-20T02:26:34Z,42.805,6.029,13.3026,4.60062,2470.553,2022-8-20T04:28:24Z
2022-08-20T02:29:38Z,42.805,6.029,13.3029,4.60067,2470.591,2022-8-20T04:31:27Z
2022-08-20T02:32:41Z,42.805,6.029,13.3028,4.60072,2470.544,2022-8-20T04:34:30Z
2022-08-20T02:35:44Z,42.805,6.029,13.3031,4.60074,2470.544,2022-8-20T04:37:34Z
2022-08-20T02:38:47Z,42.805,6.029,13.3026,4.60070,2470.567,2022-8-20T04:40:37Z
2022-08-20T02:41:50Z,42.805,6.029,13.3034,4.60066,2470.553,2022-8-20T04:43:40Z
2022-08-20T02:44:53Z,42.805,6.029,13.3016,4.60064,2470.53,2022-8-20T04:46:43Z
2022-08-20T02:47:56Z,42.805,6.029,13.3014,4.60060,2470.553,2022-8-20T04:49:46Z
2022-08-20T02:50:59Z,42.805,6.029,13.3020,4.60068,2470.53,2022-8-20T04:52:49Z
2022-08-20T02:54:03Z,42.805,6.029,13.3021,4.60066,2470.553,2022-8-20T04:55:52Z
2022-08-20T02:57:06Z,42.805,6.029,13.3021,4.60073,2470.553,2022-8-20T04:58:55Z
2022-08-20T03:00:09Z,42.805,6.029,13.3021,4.60081,2470.544,2022-8-20T05:01:59Z
2022-08-20T03:03:12Z,42.805,6.029,13.3016,4.60075,2470.53,2022-8-20T05:05:02Z
2022-08-20T03:06:15Z,42.805,6.029,13.3014,4.60089,2470.544,2022-8-20T05:08:05Z
2022-08-20T03:09:18Z,42.805,6.029,13.3013,4.60074,2470.507,2022-8-20T05:11:08Z
2022-08-20T03:12:21Z,42.805,6.029,13.3015,4.60064,2470.544,2022-8-20T05:14:11Z
2022-08-20T03:15:24Z,42.805,6.029,13.3009,4.60059,2470.544,2022-8-20T05:17:14Z
2022-08-20T03:18:28Z,42.805,6.029,13.3014,4.60059,2470.53,2022-8-20T05:20:17Z
2022-08-20T03:21:31Z,42.805,6.029,13.3010,4.60059,2470.507,2022-8-20T05:23:20Z
2022-08-20T03:24:34Z,42.805,6.029,13.3018,4.60060,2470.53,2022-8-20T05:26:24Z
2022-08-20T03:27:37Z,42.805,6.029,13.3012,4.60062,2470.53,2022-8-20T05:29:27Z
2022-08-20T03:30:40Z,42.805,6.029,13.3008,4.60108,2470.507,2022-8-20T05:32:30Z
2022-08-20T03:33:43Z,42.805,6.029,13.3012,4.60072,2470.497,2022-8-20T05:35:33Z
2022-08-20T03:36:46Z,42.805,6.029,13.3011,4.60063,2470.53,2022-8-20T05:38:36Z
2022-08-20T03:39:49Z,42.805,6.029,13.3011,4.60064,2470.53,2022-8-20T05:41:39Z
2022-08-20T03:42:53Z,42.805,6.029,13.3103,4.60060,2470.52,2022-8-20T05:44:42Z
2022-08-20T03:45:56Z,42.805,6.029,13.3012,4.60068,2470.539,2022-8-20T05:47:45Z
2022-08-20T03:48:59Z,42.805,6.029,13.3009,4.60061,2470.52,2022-8-20T05:50:49Z
2022-08-20T03:52:02Z,42.805,6.029,13.3011,4.60059,2470.544,2022-8-20T05:53:52Z
2022-08-20T03:55:05Z,42.805,6.029,13.3014,4.60067,2470.544,2022-8-20T05:56:55Z
2022-08-20T03:58:08Z,42.805,6.029,13.3011,4.60062,2470.483,2022-8-20T05:59:58Z
2022-08-20T04:01:11Z,42.805,6.029,13.3013,4.60064,2470.544,2022-8-20T06:03:01Z
2022-08-20T04:04:14Z,42.805,6.029,13.3012,4.60079,2470.544,2022-8-20T06:06:04Z
2022-08-20T04:07:18Z,42.805,6.029,13.3009,4.60084,2470.52,2022-8-20T06:09:07Z
2022-08-20T04:10:21Z,42.805,6.029,13.3009,4.60099,2470.53,2022-8-20T06:12:10Z
2022-08-20T04:13:24Z,42.805,6.029,13.3010,4.60082,2470.544,2022-8-20T06:15:14Z
2022-08-20T04:16:27Z,42.805,6.029,13.3009,4.60102,2470.544,2022-8-20T06:18:17Z
2022-08-20T04:19:30Z,42.805,6.029,13.3011,4.60077,2470.497,2022-8-20T06:21:20Z
2022-08-20T04:22:33Z,42.805,6.029,13.3030,4.60077,2470.544,2022-8-20T06:24:23Z
2022-08-20T04:25:36Z,42.805,6.029,13.3120,4.60084,2470.53,2022-8-20T06:27:26Z
2022-08-20T04:28:39Z,42.805,6.029,13.3022,4.60105,2470.53,2022-8-20T06:30:29Z
2022-08-20T04:31:42Z,42.805,6.029,13.3031,4.60085,2470.544,2022-8-20T06:33:32Z
2022-08-20T04:34:46Z,42.805,6.029,13.3070,4.60084,2470.53,2022-8-20T06:36:35Z
2022-08-20T04:37:49Z,42.805,6.029,13.3015,4.60111,2470.544,2022-8-20T06:39:38Z
2022-08-20T04:40:52Z,42.805,6.029,13.3031,4.60060,2470.53,2022-8-20T06:42:42Z
2022-08-20T04:43:55Z,42.805,6.029,13.3047,4.60065,2470.53,2022-8-20T06:45:45Z
2022-08-20T04:46:58Z,42.805,6.029,13.3046,4.60102,2470.507,2022-8-20T06:48:48Z
2022-08-20T04:50:01Z,42.805,6.029,13.3058,4.60132,2470.553,2022-8-20T06:51:51Z
2022-08-20T04:53:04Z,42.805,6.029,13.3053,4.60147,2470.483,2022-8-20T06:54:54Z
2022-08-20T04:56:07Z,42.805,6.029,13.3056,4.60119,2470.544,2022-8-20T06:57:57Z
2022-08-20T04:59:11Z,42.805,6.029,13.3048,4.60129,2470.52,2022-8-20T07:01:00Z
2022-08-20T05:02:14Z,42.805,6.029,13.3064,4.60096,2470.52,2022-8-20T07:04:03Z
2022-08-20T05:05:17Z,42.805,6.029,13.3072,4.60102,2470.544,2022-8-20T07:07:07Z
2022-08-20T05:08:20Z,42.805,6.029,13.3088,4.60089,2470.52,2022-8-20T07:10:10Z
2022-08-20T05:11:23Z,42.805,6.029,13.3096,4.60087,2470.52,2022-8-20T07:13:13Z
2022-08-20T05:14:26Z,42.805,6.029,13.3054,4.60099,2470.483,2022-8-20T07:16:16Z
2022-08-20T05:17:29Z,42.805,6.029,13.3067,4.60101,2470.52,2022-8-20T07:19:19Z
2022-08-20T05:20:32Z,42.805,6.029,13.3067,4.60110,2470.544,2022-8-20T07:22:22Z
2022-08-20T05:23:36Z,42.805,6.029,13.3063,4.60094,2470.52,2022-8-20T07:25:25Z
2022-08-20T05:26:39Z,42.805,6.029,13.3051,4.60109,2470.497,2022-8-20T07:28:28Z
2022-08-20T05:29:42Z,42.805,6.029,13.3051,4.60161,2470.53,2022-8-20T07:31:32Z
2022-08-20T05:32:45Z,42.805,6.029,13.3065,4.60118,2470.52,2022-8-20T07:34:35Z
2022-08-20T05:35:48Z,42.805,6.029,13.3093,4.60118,2470.52,2022-8-20T07:37:38Z
2022-08-20T05:38:51Z,42.805,6.029,13.3096,4.60123,2470.544,2022-8-20T07:40:41Z
2022-08-20T05:41:54Z,42.805,6.029,13.3107,4.60135,2470.493,2022-8-20T07:43:44Z
2022-08-20T05:44:57Z,42.805,6.029,13.3055,4.60168,2470.52,2022-8-20T07:46:47Z
2022-08-20T05:48:01Z,42.805,6.029,13.3069,4.60088,2470.52,2022-8-20T07:49:50Z
2022-08-20T05:51:04Z,42.805,6.029,13.3051,4.60103,2470.507,2022-8-20T07:52:53Z
2022-08-20T05:54:07Z,42.805,6.029,13.3051,4.60124,2470.544,2022-8-20T07:55:57Z
2022-08-20T05:57:10Z,42.805,6.029,13.3069,4.60101,2470.53,2022-8-20T07:59:00Z
2022-08-20T06:00:13Z,42.805,6.029,13.3077,4.60135,2470.53,2022-8-20T08:02:03Z
2022-08-20T06:03:16Z,42.805,6.029,13.3067,4.60087,2470.52,2022-8-20T08:05:06Z
2022-08-20T06:06:19Z,42.805,6.029,13.3052,4.60120,2470.52,2022-8-20T08:08:09Z
2022-08-20T06:09:22Z,42.805,6.029,13.3052,4.60117,2470.52,2022-8-20T08:11:12Z
2022-08-20T06:12:25Z,42.805,6.029,13.3060,4.60104,2470.52,2022-8-20T08:14:15Z
2022-08-20T06:15:29Z,42.805,6.029,13.3091,4.60087,2470.52,2022-8-20T08:17:18Z
2022-08-20T06:18:32Z,42.805,6.029,13.3091,4.60099,2470.52,2022-8-20T08:20:21Z
2022-08-20T06:21:35Z,42.805,6.029,13.3091,4.60111,2470.497,2022-8-20T08:23:25Z
2022-08-20T06:24:38Z,42.805,6.029,13.3098,4.60173,2470.52,2022-8-20T08:26:28Z
2022-08-20T06:27:41Z,42.805,6.029,13.3109,4.60092,2470.52,2022-8-20T08:29:31Z
2022-08-20T06:30:44Z,42.805,6.029,13.3116,4.60092,2470.497,2022-8-20T08:32:34Z
2022-08-20T06:33:47Z,42.805,6.029,13.3108,4.60094,2470.507,2022-8-20T08:35:37Z
2022-08-20T06:36:50Z,42.805,6.029,13.3109,4.60086,2470.52,2022-8-20T08:38:40Z
2022-08-20T06:39:54Z,42.805,6.029,13.3106,4.60092,2470.497,2022-8-20T08:41:43Z
2022-08-20T06:42:57Z,42.805,6.029,13.3096,4.60082,2470.497,2022-8-20T08:44:46Z
2022-08-20T06:46:00Z,42.805,6.029,13.3092,4.60077,2470.483,2022-8-20T08:47:50Z
2022-08-20T06:49:03Z,42.805,6.029,13.3081,4.60084,2470.497,2022-8-20T08:50:53Z
2022-08-20T06:52:06Z,42.805,6.029,13.3070,4.60082,2470.52,2022-8-20T08:53:56Z
2022-08-20T06:55:09Z,42.805,6.029,13.3070,4.60102,2470.497,2022-8-20T08:56:59Z
2022-08-20T06:58:12Z,42.805,6.029,13.3070,4.60087,2470.507,2022-8-20T09:00:02Z
2022-08-20T07:01:15Z,42.805,6.029,13.3067,4.60094,2470.483,2022-8-20T09:03:05Z
2022-08-20T07:04:19Z,42.805,6.029,13.3066,4.60098,2470.497,2022-8-20T09:06:08Z
2022-08-20T07:07:22Z,42.805,6.029,13.3067,4.60092,2470.507,2022-8-20T09:09:11Z
2022-08-20T07:10:25Z,42.805,6.029,13.3068,4.60085,2470.483,2022-8-20T09:12:15Z
2022-08-20T07:13:28Z,42.805,6.029,13.3061,4.60084,2470.52,2022-8-20T09:15:18Z
2022-08-20T07:16:31Z,42.805,6.029,13.3056,4.60099,2470.507,2022-8-20T09:18:21Z
2022-08-20T07:19:34Z,42.805,6.029,13.3055,4.60110,2470.497,2022-8-20T09:21:24Z
2022-08-20T07:22:37Z,42.805,6.029,13.3070,4.60080,2470.507,2022-8-20T09:24:27Z
2022-08-20T07:25:40Z,42.805,6.029,13.3075,4.60079,2470.483,2022-8-20T09:27:30Z
2022-08-20T07:28:44Z,42.805,6.029,13.3075,4.60067,2470.474,2022-8-20T09:30:33Z
2022-08-20T07:31:47Z,42.805,6.029,13.3077,4.60080,2470.507,2022-8-20T09:33:36Z
2022-08-20T07:34:50Z,42.805,6.029,13.3065,4.60076,2470.497,2022-8-20T09:36:40Z
2022-08-20T07:37:53Z,42.805,6.029,13.3054,4.60078,2470.507,2022-8-20T09:39:43Z
2022-08-20T07:40:56Z,42.805,6.029,13.3046,4.60087,2470.483,2022-8-20T09:42:46Z
2022-08-20T07:43:59Z,42.805,6.029,13.3036,4.60111,2470.483,2022-8-20T09:45:49Z
2022-08-20T07:47:02Z,42.805,6.029,13.3037,4.60115,2470.52,2022-8-20T09:48:52Z
2022-08-20T07:50:05Z,42.805,6.029,13.3041,4.60084,2470.46,2022-8-20T09:51:55Z
2022-08-20T07:53:08Z,42.805,6.029,13.3036,4.60069,2470.483,2022-8-20T09:54:58Z
2022-08-20T07:56:12Z,42.805,6.029,13.3031,4.60097,2470.474,2022-8-20T09:58:01Z
2022-08-20T07:59:15Z,42.805,6.029,13.3029,4.60086,2470.507,2022-8-20T10:01:05Z
2022-08-20T08:02:18Z,42.805,6.029,13.3041,4.60083,2470.483,2022-8-20T10:04:08Z
2022-08-20T08:05:21Z,42.805,6.029,13.3037,4.60089,2470.544,2022-8-20T10:07:11Z
2022-08-20T08:08:24Z,42.805,6.029,13.3037,4.60091,2470.544,2022-8-20T10:10:14Z
2022-08-20T08:11:27Z,42.805,6.029,13.3046,4.60084,2470.45,2022-8-20T10:13:17Z
2022-08-20T08:14:30Z,42.805,6.029,13.3085,4.60093,2470.474,2022-8-20T10:16:20Z
2022-08-20T08:17:34Z,42.805,6.029,13.3066,4.60089,2470.52,2022-8-20T10:19:23Z
2022-08-20T08:20:37Z,42.805,6.029,13.3063,4.60093,2470.483,2022-8-20T10:22:26Z
2022-08-20T08:23:40Z,42.805,6.029,13.3043,4.60113,2470.483,2022-8-20T10:25:30Z
2022-08-20T08:26:43Z,42.805,6.029,13.3042,4.60110,2470.497,2022-8-20T10:28:33Z
2022-08-20T08:29:46Z,42.805,6.029,13.3038,4.60099,2470.483,2022-8-20T10:31:36Z
2022-08-20T08:32:49Z,42.805,6.029,13.3054,4.60113,2470.437,2022-8-20T10:34:39Z
2022-08-20T08:35:52Z,42.805,6.029,13.3056,4.60092,2470.483,2022-8-20T10:37:42Z
2022-08-20T08:38:55Z,42.805,6.029,13.3063,4.60088,2470.52,2022-8-20T10:40:45Z
2022-08-20T08:41:59Z,42.805,6.029,13.3062,4.60107,2470.497,2022-8-20T10:43:48Z
2022-08-20T08:45:02Z,42.805,6.029,13.3043,4.60113,2470.52,2022-8-20T10:46:51Z
2022-08-20T08:48:05Z,42.805,6.029,13.3050,4.60102,2470.507,2022-8-20T10:49:55Z
2022-08-20T08:51:08Z,42.805,6.029,13.3055,4.60132,2470.483,2022-8-20T10:52:58Z
2022-08-20T08:54:11Z,42.805,6.029,13.3060,4.60147,2470.46,2022-8-20T10:56:01Z
2022-08-20T08:57:14Z,42.805,6.029,13.3065,4.60112,2470.52,2022-8-20T10:59:04Z
2022-08-20T09:00:17Z,42.805,6.029,13.3038,4.60106,2470.53,2022-8-20T11:02:07Z
2022-08-20T09:03:20Z,42.805,6.029,13.3054,4.60101,2470.497,2022-8-20T11:05:10Z
2022-08-20T09:06:24Z,42.805,6.029,13.3051,4.60108,2470.507,2022-8-20T11:08:13Z
2022-08-20T09:09:27Z,42.805,6.029,13.3050,4.60075,2470.483,2022-8-20T11:11:16Z
2022-08-20T09:12:30Z,42.805,6.029,13.3034,4.60092,2470.497,2022-8-20T11:14:20Z
2022-08-20T09:15:33Z,42.805,6.029,13.3041,4.60112,2470.497,2022-8-20T11:17:23Z
2022-08-20T09:18:36Z,42.805,6.029,13.3046,4.60089,2470.52,2022-8-20T11:20:26Z
2022-08-20T09:21:39Z,42.805,6.029,13.3058,4.60094,2470.52,2022-8-20T11:23:29Z
2022-08-20T09:24:42Z,42.805,6.029,13.3073,4.60103,2470.52,2022-8-20T11:26:32Z
2022-08-20T09:27:45Z,42.805,6.029,13.3071,4.60079,2470.52,2022-8-20T11:29:35Z
2022-08-20T09:30:49Z,42.805,6.029,13.3082,4.60122,2470.53,2022-8-20T11:32:38Z
2022-08-20T09:33:52Z,42.805,6.029,13.3061,4.60092,2470.507,2022-8-20T11:35:41Z
2022-08-20T09:36:55Z,42.805,6.029,13.3085,4.60084,2470.507,2022-8-20T11:38:45Z
2022-08-20T09:39:58Z,42.805,6.029,13.3086,4.60075,2470.507,2022-8-20T11:41:48Z
2022-08-20T09:43:01Z,42.805,6.029,13.3091,4.60082,2470.544,2022-8-20T11:44:51Z
2022-08-20T09:46:04Z,42.805,6.029,13.3061,4.60084,2470.53,2022-8-20T11:47:54Z
2022-08-20T09:49:07Z,42.805,6.029,13.3076,4.60099,2470.483,2022-8-20T11:50:57Z
2022-08-20T09:52:10Z,42.805,6.029,13.3073,4.60080,2470.52,2022-8-20T11:54:00Z
2022-08-20T09:55:14Z,42.805,6.029,13.3070,4.60092,2470.507,2022-8-20T11:57:03Z
2022-08-20T09:58:17Z,42.805,6.029,13.3060,4.60103,2470.52,2022-8-20T12:00:06Z
2022-08-20T10:01:20Z,42.805,6.029,13.3065,4.60089,2470.493,2022-8-20T12:03:10Z
2022-08-20T10:04:23Z,42.805,6.029,13.3073,4.60092,2470.544,2022-8-20T12:06:13Z
2022-08-20T10:07:26Z,42.805,6.029,13.3061,4.60139,2470.53,2022-8-20T12:09:16Z
2022-08-20T10:10:29Z,42.805,6.029,13.3071,4.60132,2470.53,2022-8-20T12:12:19Z
2022-08-20T10:13:32Z,42.805,6.029,13.3076,4.60086,2470.52,2022-8-20T12:15:22Z
2022-08-20T10:16:35Z,42.805,6.029,13.3060,4.60102,2470.53,2022-8-20T12:18:25Z
2022-08-20T10:19:39Z,42.805,6.029,13.3057,4.60082,2470.52,2022-8-20T12:21:28Z
2022-08-20T10:22:42Z,42.805,6.029,13.3063,4.60074,2470.52,2022-8-20T12:24:31Z
2022-08-20T10:25:45Z,42.805,6.029,13.3057,4.60102,2470.567,2022-8-20T12:27:35Z
2022-08-20T10:28:48Z,42.805,6.029,13.3066,4.60120,2470.544,2022-8-20T12:30:38Z
2022-08-20T10:31:51Z,42.805,6.029,13.3065,4.60108,2470.544,2022-8-20T12:33:41Z
2022-08-20T10:34:54Z,42.805,6.029,13.3070,4.60124,2470.507,2022-8-20T12:36:44Z
2022-08-20T10:37:57Z,42.805,6.029,13.3069,4.60115,2470.544,2022-8-20T12:39:47Z
2022-08-20T10:41:00Z,42.805,6.029,13.3082,4.60119,2470.53,2022-8-20T12:42:50Z
2022-08-20T10:44:04Z,42.805,6.029,13.3070,4.60106,2470.567,2022-8-20T12:45:53Z
2022-08-20T10:47:07Z,42.805,6.029,13.3059,4.60088,2470.553,2022-8-20T12:48:56Z
2022-08-20T10:50:10Z,42.805,6.029,13.3066,4.60084,2470.567,2022-8-20T12:52:00Z
2022-08-20T10:53:13Z,42.805,6.029,13.3090,4.60078,2470.577,2022-8-20T12:55:03Z
2022-08-20T10:56:16Z,42.805,6.029,13.3089,4.60072,2470.544,2022-8-20T12:58:06Z
2022-08-20T10:59:19Z,42.805,6.029,13.3081,4.60087,2470.53,2022-8-20T13:01:09Z
2022-08-20T11:02:22Z,42.805,6.029,13.3069,4.60108,2470.544,2022-8-20T13:04:12Z
2022-08-20T11:05:25Z,42.805,6.029,13.3052,4.60085,2470.591,2022-8-20T13:07:15Z
2022-08-20T11:08:29Z,42.805,6.029,13.3061,4.60079,2470.53,2022-8-20T13:10:18Z
2022-08-20T11:11:32Z,42.805,6.029,13.3066,4.60100,2470.52,2022-8-20T13:13:21Z
2022-08-20T11:14:35Z,42.805,6.029,13.3081,4.60111,2470.567,2022-8-20T13:16:25Z
2022-08-20T11:17:38Z,42.805,6.029,13.3091,4.60133,2470.591,2022-8-20T13:19:28Z
2022-08-20T11:20:41Z,42.805,6.029,13.3077,4.60095,2470.591,2022-8-20T13:22:31Z
2022-08-20T11:23:44Z,42.805,6.029,13.3061,4.60110,2470.567,2022-8-20T13:25:34Z
2022-08-20T11:26:47Z,42.805,6.029,13.3085,4.60073,2470.567,2022-8-20T13:28:37Z
2022-08-20T11:29:50Z,42.805,6.029,13.3092,4.60077,2470.567,2022-8-20T13:31:40Z
2022-08-20T11:32:54Z,42.805,6.029,13.3089,4.60088,2470.553,2022-8-20T13:34:43Z
2022-08-20T11:35:57Z,42.805,6.029,13.3085,4.60075,2470.567,2022-8-20T13:37:46Z
2022-08-20T11:39:00Z,42.805,6.029,13.3088,4.60072,2470.567,2022-8-20T13:40:50Z
2022-08-20T11:42:03Z,42.805,6.029,13.3093,4.60086,2470.567,2022-8-20T13:43:53Z
2022-08-20T11:45:06Z,42.805,6.029,13.3085,4.60079,2470.614,2022-8-20T13:46:56Z
2022-08-20T11:48:09Z,42.805,6.029,13.3073,4.60082,2470.591,2022-8-20T13:49:59Z
2022-08-20T11:51:12Z,42.805,6.029,13.3051,4.60108,2470.577,2022-8-20T13:53:02Z
2022-08-20T11:54:15Z,42.805,6.029,13.3075,4.60101,2470.567,2022-8-20T13:56:05Z
2022-08-20T11:57:19Z,42.805,6.029,13.3078,4.60081,2470.567,2022-8-20T13:59:08Z
2022-08-20T12:00:22Z,42.805,6.029,13.3089,4.60082,2470.544,2022-8-20T14:02:11Z
2022-08-20T12:03:25Z,42.805,6.029,13.3091,4.60075,2470.591,2022-8-20T14:05:15Z
2022-08-20T12:06:28Z,42.805,6.029,13.3084,4.60085,2470.591,2022-8-20T14:08:18Z
2022-08-20T12:09:31Z,42.805,6.029,13.3082,4.60079,2470.6,2022-8-20T14:11:21Z
2022-08-20T12:12:34Z,42.805,6.029,13.3087,4.60078,2470.591,2022-8-20T14:14:24Z
2022-08-20T12:15:37Z,42.805,6.029,13.3085,4.60079,2470.553,2022-8-20T14:17:27Z
2022-08-20T12:18:40Z,42.805,6.029,13.3096,4.60078,2470.591,2022-8-20T14:20:30Z
2022-08-20T12:21:44Z,42.805,6.029,13.3097,4.60089,2470.567,2022-8-20T14:23:33Z
2022-08-20T12:24:47Z,42.805,6.029,13.3093,4.60107,2470.544,2022-8-20T14:26:36Z
2022-08-20T12:27:50Z,42.805,6.029,13.3096,4.60104,2470.567,2022-8-20T14:29:40Z
2022-08-20T12:30:53Z,42.805,6.029,13.3093,4.60097,2470.553,2022-8-20T14:32:43Z
2022-08-20T12:33:56Z,42.805,6.029,13.3097,4.60081,2470.591,2022-8-20T14:35:46Z
2022-08-20T12:36:59Z,42.805,6.029,13.3095,4.60093,2470.614,2022-8-20T14:38:49Z
2022-08-20T12:40:02Z,42.805,6.029,13.3092,4.60114,2470.577,2022-8-20T14:41:52Z
2022-08-20T12:43:05Z,42.805,6.029,13.3096,4.60100,2470.577,2022-8-20T14:44:55Z
2022-08-20T12:46:09Z,42.805,6.029,13.3093,4.60079,2470.567,2022-8-20T14:47:58Z
2022-08-20T12:49:12Z,42.805,6.029,13.3098,4.60086,2470.567,2022-8-20T14:51:01Z
2022-08-20T12:52:15Z,42.805,6.029,13.3093,4.60103,2470.577,2022-8-20T14:54:05Z
2022-08-20T12:55:18Z,42.805,6.029,13.3100,4.60099,2470.591,2022-8-20T14:57:08Z
2022-08-20T12:58:21Z,42.805,6.029,13.3097,4.60125,2470.591,2022-8-20T15:00:11Z
2022-08-20T13:01:24Z,42.805,6.029,13.3104,4.60099,2470.591,2022-8-20T15:03:14Z
2022-08-20T13:04:27Z,42.805,6.029,13.3108,4.60116,2470.614,2022-8-20T15:06:17Z
2022-08-20T13:07:30Z,42.805,6.029,13.3109,4.60102,2470.591,2022-8-20T15:09:20Z
2022-08-20T13:10:34Z,42.805,6.029,13.3109,4.60102,2470.577,2022-8-20T15:12:23Z
2022-08-20T13:13:37Z,42.805,6.029,13.3085,4.60122,2470.614,2022-8-20T15:15:26Z
2022-08-20T13:16:40Z,42.805,6.029,13.3074,4.60130,2470.614,2022-8-20T15:18:30Z
2022-08-20T13:19:43Z,42.805,6.029,13.3042,4.60125,2470.6,2022-8-20T15:21:33Z
2022-08-20T13:22:46Z,42.805,6.029,13.3051,4.60124,2470.577,2022-8-20T15:24:36Z
2022-08-20T13:25:49Z,42.805,6.029,13.3019,4.60144,2470.577,2022-8-20T15:27:39Z
2022-08-20T13:28:52Z,42.805,6.029,13.3066,4.60128,2470.544,2022-8-20T15:30:42Z
2022-08-20T13:31:55Z,42.805,6.029,13.3073,4.60139,2470.591,2022-8-20T15:33:45Z
2022-08-20T13:34:59Z,42.805,6.029,13.3069,4.60137,2470.577,2022-8-20T15:36:48Z
2022-08-20T13:38:02Z,42.805,6.029,13.3079,4.60118,2470.577,2022-8-20T15:39:51Z
2022-08-20T13:41:05Z,42.805,6.029,13.3088,4.60126,2470.614,2022-8-20T15:42:55Z
2022-08-20T13:44:08Z,42.805,6.029,13.3086,4.60119,2470.614,2022-8-20T15:45:58Z
2022-08-20T13:47:11Z,42.805,6.029,13.3091,4.60115,2470.591,2022-8-20T15:49:01Z
2022-08-20T13:50:14Z,42.805,6.029,13.3101,4.60117,2470.577,2022-8-20T15:52:04Z
2022-08-20T13:53:17Z,42.805,6.029,13.3096,4.60115,2470.591,2022-8-20T15:55:07Z
2022-08-20T13:56:20Z,42.805,6.029,13.3088,4.60117,2470.591,2022-8-20T15:58:10Z
2022-08-20T13:59:24Z,42.805,6.029,13.3089,4.60113,2470.624,2022-8-20T16:01:13Z
2022-08-20T14:02:27Z,42.805,6.029,13.3092,4.60121,2470.591,2022-8-20T16:04:16Z
2022-08-20T14:05:30Z,42.805,6.029,13.3093,4.60126,2470.577,2022-8-20T16:07:20Z
2022-08-20T14:08:33Z,42.805,6.029,13.3094,4.60142,2470.6,2022-8-20T16:10:23Z
2022-08-20T14:11:36Z,42.805,6.029,13.3091,4.60122,2470.614,2022-8-20T16:13:26Z
2022-08-20T14:14:39Z,42.805,6.029,13.3098,4.60103,2470.591,2022-8-20T16:16:29Z
2022-08-20T14:17:42Z,42.805,6.029,13.3092,4.60104,2470.614,2022-8-20T16:19:32Z
2022-08-20T14:20:45Z,42.805,6.029,13.3095,4.60125,2470.624,2022-8-20T16:22:35Z
2022-08-20T14:23:49Z,42.805,6.029,13.3091,4.60121,2470.591,2022-8-20T16:25:38Z
2022-08-20T14:26:52Z,42.805,6.029,13.3093,4.60087,2470.614,2022-8-20T16:28:41Z
2022-08-20T14:29:55Z,42.805,6.029,13.3096,4.60092,2470.591,2022-8-20T16:31:45Z
2022-08-20T14:32:58Z,42.805,6.029,13.3098,4.60104,2470.567,2022-8-20T16:34:48Z
2022-08-20T14:36:01Z,42.805,6.029,13.3096,4.60099,2470.591,2022-8-20T16:37:51Z
2022-08-20T14:39:04Z,42.805,6.029,13.3093,4.60099,2470.6,2022-8-20T16:40:54Z
2022-08-20T14:42:07Z,42.805,6.029,13.3085,4.60114,2470.591,2022-8-20T16:43:57Z
2022-08-20T14:45:10Z,42.805,6.029,13.3052,4.60123,2470.591,2022-8-20T16:47:00Z
2022-08-20T14:48:14Z,42.805,6.029,13.3048,4.60097,2470.614,2022-8-20T16:50:03Z
2022-08-20T14:51:17Z,42.805,6.029,13.3041,4.60095,2470.614,2022-8-20T16:53:06Z
2022-08-20T14:54:20Z,42.805,6.029,13.3034,4.60085,2470.577,2022-8-20T16:56:10Z
2022-08-20T14:57:23Z,42.805,6.029,13.3036,4.60078,2470.6,2022-8-20T16:59:13Z
2022-08-20T15:00:26Z,42.805,6.029,13.3039,4.60072,2470.6,2022-8-20T17:02:16Z
2022-08-20T15:03:29Z,42.805,6.029,13.3041,4.60059,2470.614,2022-8-20T17:05:19Z
2022-08-20T15:06:32Z,42.805,6.029,13.3051,4.60060,2470.591,2022-8-20T17:08:22Z
2022-08-20T15:09:35Z,42.805,6.029,13.3077,4.60061,2470.614,2022-8-20T17:11:25Z
2022-08-20T15:12:39Z,42.805,6.029,13.3082,4.60066,2470.591,2022-8-20T17:14:28Z